Weather Roundup
Issued by NWS

Home | Current Version | Previous Version | Graphics & Text | Print | Product List | Glossary Off
Versions: 1 2 3 4 5 6 7 8 9 10 11 12 13 14 15 16 17 18 19 20 21 22 23 24 25 26 27 28 29 30 31 32 33 34 35 36 37 38 39 40 41 42 43 44 45 46 47 48 49 50

000
NZUS93 KARX 252259
HRRWXR

CURRENT HOURLY OBSERVATIONS ACROSS
MUCH OF THE UPPER MISSISSIPPI VALLEY
NATIONAL WEATHER SERVICE LA CROSSE WI
600 PM CDT SAT MAR 25 2017


...SOUTHEAST MINNESOTA...


CITY           SKY/WX    TMP DP  RH WIND       PRES   REMARKS
ROCHESTER      LGT RAIN  37  36  96 NE13      30.00F WCI  29
ROCHESTER/MAYO CLOUDY    39  36  89 NE9G16    30.02S WCI  33
WINONA         CLOUDY    41  34  75 E10       30.05S
AUSTIN         LGT RAIN  37  36  93 NE14G21   29.98S WCI  29
ALBERT LEA     DRIZZLE   37  36  93 NE14      29.99S WCI  29
DODGE CENTER   CLOUDY    37  36  93 NE17      30.00S WCI  28
PRESTON        RAIN      36  34  93 NE10      30.00S WCI  29
OWATONNA       CLOUDY    39  34  81 NE13      30.01F WCI  32
FARIBAULT      LGT RAIN  37  36  93 NE9       30.04R WCI  31
$$

...ELSEWHERE IN MINNESOTA...


CITY           SKY/WX    TMP DP  RH WIND       PRES   REMARKS
MINNEAPOLIS    CLOUDY    43  32  65 NE13      30.06F
INTNL FALLS    MOSUNNY   40  26  57 SE12      30.11F WCI  33
DULUTH         CLOUDY    31  28  89 E15G23    30.15S WCI  20
RED WING       HVY RAIN  39  34  81 E9        30.05S WCI  33
REDWOOD FALLS  CLOUDY    42  35  76 E10       30.03F
MANKATO        LGT RAIN  38  36  92 NE12      30.03S FOG     WCI  30
WORTHINGTON    MIX PCPN  37  36  96 E13       29.99S FOG     WCI  29
FAIRMONT       LGT RAIN  38  37  97 NE12      30.01S FOG     WCI  30
$$

...SOUTHWEST WISCONSIN...


CITY           SKY/WX    TMP DP  RH WIND       PRES   REMARKS
LA CROSSE      LGT RAIN  40  36  86 NE9       30.05S WCI  34
PRAIRIE DU CHI CLOUDY    39  38  97 E10       29.99F FOG     WCI  32
BOSCOBEL       CLOUDY    41  38  89 E10G22    30.01S FOG
LONE ROCK      NOT AVBL
PLATTEVILLE    CLOUDY    40  40 100 E20       29.97S WCI  31
FORT MC COY    CLOUDY    37  36  96 E13       30.07R FOG     WCI  28
CAMP DOUGLAS   CLOUDY    37  36  93 E10       30.07S FOG     WCI  30
MAUSTON-NEW LI MIX PCPN  37  36  94 E10G17    30.06S WCI  30
VIROQUA        CLOUDY    37  37  99 E17G23    30.00S WCI  27
WIS DELLS      CLOUDY    37  35  95 E16G22    30.04F FOG     WCI  27
$$

...ELSEWHERE IN WISCONSIN...


CITY           SKY/WX    TMP DP  RH WIND       PRES   REMARKS
MILWAUKEE      CLOUDY    39  37  92 NE13      30.06F WCI  31
MADISON        CLOUDY    39  37  92 E17       30.03F WCI  30
GREEN BAY      CLOUDY    35  34  96 NE17      30.15R WCI  25
EAU CLAIRE     NOT AVBL
BLACK RVR FLS  CLOUDY    39  36  89 E12       30.06S WCI  31
MEDFORD        DRIZZLE   37  32  82 E8        30.09F WCI  31
WAUSAU         CLOUDY    36  30  79 E14G21    30.10F WCI  27
WIS RAPIDS     LGT RAIN  35  34  96 E15G26    30.11R FOG     WCI  25
MARSHFIELD     LGT RAIN  36  32  85 E16       30.08S FOG     WCI  26
RICE LAKE      CLOUDY    42  32  68 E8        30.11S
$$

...NORTHEAST IOWA...


CITY           SKY/WX    TMP DP  RH WIND       PRES   REMARKS
WATERLOO       CLOUDY    40  38  93 NE14      29.94S FOG     WCI  32
DUBUQUE        FOG       40  40 100 NE20G28   29.94S VSB 1   WCI  30
DECORAH        CLOUDY    37  37 100 NE14      29.97S WCI  29
MASON CITY     CLOUDY    39  36  89 NE13      29.98S WCI  31
CHARLES CITY   CLOUDY    39  39 100 NE17      29.96S WCI  30
OELWEIN        CLOUDY    39  39 100 NE17G25   29.93S WCI  30
$$

...ELSEWHERE IN IOWA...


CITY           SKY/WX    TMP DP  RH WIND       PRES   REMARKS
DES MOINES     CLOUDY    44  41  89 NE10      29.89F
IOWA CITY      CLOUDY    48  46  93 NE13      29.90S
FORT DODGE     CLOUDY    39  36  87 NE10G17   29.95S WCI  32
MARSHALLTOWN   CLOUDY    42  41  96 NE15      29.90F
CEDAR RAPIDS   CLOUDY    44  44 100 E15       29.88S
$$

...NORTHERN ILLINOIS...


CITY           SKY/WX    TMP DP  RH WIND       PRES   REMARKS
CHICAGO-OHARE  RAIN      43  41  93 N8        29.98F FOG
CHICAGO-MIDWAY LGT RAIN  45  44  97 N13G21    29.97F FOG
MOLINE         CLOUDY    54  50  86 E14       29.88S FOG
ROCKFORD       CLOUDY    43  40  89 NE14      29.99F
PEORIA         RAIN      59  58  96 E6        29.87S FOG
$$

NOTE: "FAIR" INDICATES FEW OR NO CLOUDS BELOW 12,000 FEET WITH NO
SIGNIFICANT WEATHER AND/OR OBSTRUCTIONS TO VISIBILITY. WIND
SPEEDS ARE IN MILES-PER-HOUR.




USA.gov is the U.S. government's official web portal to all federal, state and local government web resources and services.